Location: ???????
(55.4362°N, 38.1183°E)
Time: 18:25:40
(UTC+00:00)

Meteor 1-4 Rocket - Pass Details

Date: 17 June 2021
Orbit: 447 x 499 km, 81.2° (Epoch: 29 July)

Event Time Altitude Azimuth Distance (km) Brightness Sun altitude
Rises 19:59:42 0° 354° (N) 2,508 8.0 -8.9°
Reaches altitude 10° 20:02:12 10° 12° (NNE) 1,617 6.2 -9.0°
Maximum altitude 20:04:54 20° 62° (ENE) 1,108 4.5 -9.2°
Drops below altitude 10° 20:07:34 10° 112° (ESE) 1,591 4.8 -9.3°
Enters shadow 20:08:20 - 120° (ESE) 1,843 5.1 -9.3°
